User: anonymous   Login
Location: La Tine
(46.4708°N, 7.0525°E)
Time: 02:48:01
(UTC+00:00)
Language:

Meteor 1-24 Rocket - Orbit

View from above orbital plane
View from above orbital plane
View from above satellite
View from above satellite

Ground track
Ground track

The orbit data is extracted from the following two-line orbital elements,

1  8800U 76032B   21127.87203468  .00000166  00000-0  82382-4 0  9995
2  8800  81.2493 275.1496 0096310 122.6966 238.3538 14.10163119318405
Epoch (UTC): 07 May 2021 20:55:43
Eccentricity: 0.0096310
inclination: 81.2493°
perigee height: 789 km
apogee height: 928 km
right ascension of ascending node: 275.1496°
argument of perigee: 122.6966°
revolutions per day: 14.10163119
mean anomaly at epoch: 238.3538°
orbit number at epoch: 31840

The dashed part of the orbit path shows where the satellite is in the earth's shadow,  

DLR